When you browse on this site, cookies collect data to enhance your experience and personalize the content and advertising you see.
Visit our Privacy Policy to learn more. By continuing to use the site, you agree to this use of cookies and data.
  • In France
  • List of Countries
  • For 7 days
  • Water Temperature
  • Weather Map
  • Weather Widgets
  • user-avatar
    Login

    Hourly Weather Charlottetown

    Today, 4 June, Thursday

    Time Temperature Precipitation Wind Pressure Humidity
    00:00 +8°C° 0 mm 4 mps 751 mmHg 95%
    01:00 +8°C° 0 mm 4 mps 751 mmHg 96%
    02:00 +8°C° 0 mm 2 mps 751 mmHg 98%
    03:00 +9°C° 0 mm 3 mps 751 mmHg 98%
    04:00 +9°C° 0 mm 3 mps 751 mmHg 97%
    05:00 +8°C° 0 mm 4 mps 751 mmHg 97%
    06:00 +11°C° 0 mm 4 mps 752 mmHg 94%
    07:00 +12°C° 0 mm 4 mps 752 mmHg 92%
    08:00 +13°C° 0 mm 5 mps 753 mmHg 89%
    09:00 +14°C° 0 mm 4 mps 753 mmHg 83%
    10:00 +15°C° 0 mm 4 mps 753 mmHg 77%
    11:00 +18°C° 0 mm 3 mps 753 mmHg 71%
    12:00 +18°C° 0 mm 3 mps 753 mmHg 68%
    13:00 +19°C° 0 mm 3 mps 753 mmHg 64%
    14:00 +20°C° 0 mm 3 mps 753 mmHg 61%
    15:00 +20°C° 0 mm 3 mps 753 mmHg 62%
    16:00 +19°C° 0 mm 4 mps 753 mmHg 63%
    17:00 +19°C° 0 mm 4 mps 754 mmHg 64%
    18:00 +17°C° 0 mm 5 mps 754 mmHg 67%
    19:00 +16°C° 0 mm 6 mps 755 mmHg 70%
    20:00 +14°C° 0 mm 6 mps 755 mmHg 73%
    21:00 +14°C° 0 mm 6 mps 755 mmHg 75%
    22:00 +13°C° 0 mm 6 mps 756 mmHg 76%
    23:00 +13°C° 0 mm 6 mps 756 mmHg 77%

    Tomorrow, 5 June, Friday

    Time Temperature Precipitation Wind Pressure Humidity
    00:00 +13°C° 0 mm 6 mps 756 mmHg 78%
    01:00 +13°C° 0 mm 6 mps 756 mmHg 79%
    02:00 +11°C° 0 mm 6 mps 757 mmHg 80%
    03:00 +11°C° 0 mm 6 mps 757 mmHg 82%
    04:00 +11°C° 0 mm 6 mps 757 mmHg 84%
    05:00 +10°C° 0 mm 6 mps 757 mmHg 85%
    06:00 +13°C° 0 mm 5 mps 758 mmHg 82%
    07:00 +14°C° 0 mm 5 mps 758 mmHg 79%
    08:00 +15°C° 0 mm 5 mps 758 mmHg 76%
    09:00 +17°C° 0 mm 4 mps 758 mmHg 72%
    10:00 +19°C° 0 mm 3 mps 758 mmHg 68%
    11:00 +20°C° 0 mm 3 mps 757 mmHg 64%
    12:00 +21°C° 0 mm 3 mps 757 mmHg 64%
    13:00 +22°C° 0 mm 3 mps 757 mmHg 64%
    14:00 +22°C° 0 mm 3 mps 757 mmHg 64%
    15:00 +22°C° 0 mm 4 mps 756 mmHg 66%
    16:00 +22°C° 0 mm 6 mps 756 mmHg 69%
    17:00 +22°C° 0 mm 8 mps 756 mmHg 71%
    18:00 +20°C° 0 mm 7 mps 756 mmHg 73%
    19:00 +18°C° 0 mm 7 mps 756 mmHg 75%
    20:00 +17°C° 0 mm 6 mps 756 mmHg 77%
    21:00 +16°C° 0 mm 6 mps 755 mmHg 80%
    22:00 +15°C° 0 mm 6 mps 755 mmHg 83%
    23:00 +15°C° 0 mm 6 mps 755 mmHg 86%

    Day after tomorrow, 6 June, Saturday

    Time Temperature Precipitation Wind Pressure Humidity
    00:00 +15°C° 0 mm 5 mps 755 mmHg 89%
    01:00 +14°C° 0 mm 5 mps 754 mmHg 92%
    02:00 +14°C° 0 mm 4 mps 754 mmHg 96%
    03:00 +15°C° 0.1 mm 4 mps 754 mmHg 96%
    04:00 +15°C° 0.1 mm 4 mps 754 mmHg 96%
    05:00 +16°C° 0.1 mm 3 mps 753 mmHg 96%
    06:00 +17°C° 0 mm 3 mps 753 mmHg 95%
    07:00 +17°C° 0 mm 4 mps 753 mmHg 94%
    08:00 +18°C° 0 mm 4 mps 753 mmHg 93%
    09:00 +18°C° 0 mm 4 mps 753 mmHg 92%
    10:00 +18°C° 0 mm 4 mps 753 mmHg 90%
    11:00 +19°C° 0 mm 4 mps 752 mmHg 89%
    12:00 +19°C° 0.1 mm 4 mps 752 mmHg 89%
    13:00 +19°C° 0.1 mm 4 mps 752 mmHg 89%
    14:00 +19°C° 0.1 mm 4 mps 752 mmHg 90%
    15:00 +19°C° 0.2 mm 4 mps 752 mmHg 91%
    16:00 +18°C° 0.2 mm 4 mps 752 mmHg 92%
    17:00 +18°C° 0.2 mm 4 mps 752 mmHg 94%
    18:00 +17°C° 0.3 mm 3 mps 752 mmHg 95%
    19:00 +16°C° 0.3 mm 3 mps 752 mmHg 96%
    20:00 +16°C° 0.3 mm 2 mps 753 mmHg 98%
    21:00 +14°C° 1.4 mm 3 mps 752 mmHg 98%
    22:00 +14°C° 1.4 mm 3 mps 752 mmHg 98%
    23:00 +13°C° 1.4 mm 3 mps 752 mmHg 98%

    7 June, Sunday

    Time Temperature Precipitation Wind Pressure Humidity
    00:00 +12°C° 0.8 mm 4 mps 752 mmHg 98%
    01:00 +12°C° 0.8 mm 4 mps 752 mmHg 98%
    02:00 +10°C° 0.8 mm 5 mps 752 mmHg 98%
    03:00 +10°C° 1 mm 6 mps 752 mmHg 98%
    04:00 +9°C° 1 mm 7 mps 752 mmHg 97%
    05:00 +8°C° 1 mm 7 mps 752 mmHg 97%
    06:00 +8°C° 0 mm 7 mps 752 mmHg 97%
    07:00 +8°C° 0 mm 7 mps 752 mmHg 96%
    08:00 +8°C° 0 mm 7 mps 752 mmHg 96%
    09:00 +8°C° 0.1 mm 7 mps 753 mmHg 95%
    10:00 +8°C° 0.1 mm 7 mps 753 mmHg 94%
    11:00 +8°C° 0.1 mm 7 mps 753 mmHg 92%
    12:00 +6°C° 0.1 mm 8 mps 753 mmHg 90%
    13:00 +6°C° 0.1 mm 9 mps 753 mmHg 88%
    14:00 +6°C° 0.1 mm 9 mps 753 mmHg 87%
    15:00 +6°C° 0.1 mm 9 mps 753 mmHg 84%
    16:00 +5°C° 0.1 mm 9 mps 753 mmHg 81%
    17:00 +5°C° 0.1 mm 9 mps 753 mmHg 78%
    18:00 +5°C° 0.2 mm 8 mps 753 mmHg 78%
    19:00 +5°C° 0.2 mm 8 mps 753 mmHg 77%
    20:00 +6°C° 0.2 mm 7 mps 753 mmHg 76%
    21:00 +5°C° 0.3 mm 7 mps 753 mmHg 77%
    22:00 +5°C° 0.3 mm 7 mps 753 mmHg 79%
    23:00 +5°C° 0.3 mm 7 mps 752 mmHg 80%

    8 June, Monday

    Time Temperature Precipitation Wind Pressure Humidity
    00:00 +6°C° 0.1 mm 8 mps 752 mmHg 77%
    01:00 +6°C° 0.1 mm 8 mps 752 mmHg 75%
    02:00 +6°C° 0.1 mm 8 mps 752 mmHg 72%
    03:00 +6°C° 0.1 mm 7 mps 752 mmHg 71%
    04:00 +6°C° 0.1 mm 7 mps 752 mmHg 71%
    05:00 +8°C° 0.1 mm 7 mps 752 mmHg 70%
    06:00 +8°C° 0 mm 7 mps 752 mmHg 72%
    07:00 +7°C° 0 mm 8 mps 753 mmHg 74%
    08:00 +7°C° 0 mm 8 mps 753 mmHg 75%
    09:00 +8°C° 0 mm 9 mps 754 mmHg 73%
    10:00 +8°C° 0 mm 9 mps 754 mmHg 71%
    11:00 +10°C° 0 mm 9 mps 754 mmHg 69%
    12:00 +10°C° 0 mm 9 mps 754 mmHg 67%
    13:00 +10°C° 0 mm 9 mps 754 mmHg 65%
    14:00 +10°C° 0 mm 9 mps 754 mmHg 63%
    15:00 +10°C° 0 mm 8 mps 755 mmHg 63%
    16:00 +10°C° 0 mm 6 mps 755 mmHg 63%
    17:00 +10°C° 0 mm 5 mps 756 mmHg 63%
    18:00 +8°C° 0 mm 4 mps 756 mmHg 69%
    19:00 +8°C° 0 mm 3 mps 756 mmHg 75%
    20:00 +6°C° 0 mm 2 mps 756 mmHg 81%
    21:00 +6°C° 0 mm 2 mps 756 mmHg 79%
    22:00 +6°C° 0 mm 2 mps 756 mmHg 76%
    23:00 +6°C° 0 mm 2 mps 757 mmHg 74%

    9 June, Tuesday

    Time Temperature Precipitation Wind Pressure Humidity
    00:00 +5°C° 0 mm 3 mps 756 mmHg 75%
    01:00 +5°C° 0 mm 3 mps 756 mmHg 76%
    02:00 +5°C° 0 mm 4 mps 756 mmHg 76%
    03:00 +5°C° 0 mm 5 mps 756 mmHg 75%
    04:00 +6°C° 0 mm 5 mps 757 mmHg 74%
    05:00 +5°C° 0 mm 6 mps 757 mmHg 72%
    06:00 +7°C° 0 mm 6 mps 757 mmHg 69%
    07:00 +8°C° 0 mm 7 mps 758 mmHg 66%
    08:00 +9°C° 0 mm 7 mps 758 mmHg 63%
    09:00 +10°C° 0 mm 7 mps 758 mmHg 63%
    10:00 +10°C° 0 mm 7 mps 759 mmHg 62%
    11:00 +10°C° 0 mm 7 mps 759 mmHg 61%
    12:00 +11°C° 0 mm 7 mps 759 mmHg 59%
    13:00 +11°C° 0 mm 6 mps 759 mmHg 56%
    14:00 +11°C° 0 mm 6 mps 759 mmHg 54%
    15:00 +13°C° 0 mm 4 mps 759 mmHg 54%
    16:00 +13°C° 0 mm 3 mps 760 mmHg 53%
    17:00 +14°C° 0 mm 2 mps 760 mmHg 53%
    18:00 +12°C° 0 mm 2 mps 760 mmHg 57%
    19:00 +10°C° 0 mm 3 mps 761 mmHg 60%
    20:00 +8°C° 0 mm 3 mps 761 mmHg 64%
    21:00 +7°C° 0 mm 4 mps 761 mmHg 63%
    22:00 +7°C° 0 mm 4 mps 762 mmHg 61%
    23:00 +7°C° 0 mm 4 mps 762 mmHg 60%
    Show more